| time (UTC) | temp F | wind direction | speed knots | gust knots | rain 1hr in | rain 24hr in | rain mn in | humidity % | barometer mb |
| 20260504081458 | 45 | 247 | 1.7 | 4.3 | 0.00 | 0.00 | 0.00 | 65 | 1013.3 |
| 20260504050007 | 46 | 238 | 1.7 | 3.5 | 0.00 | 0.00 | 0.00 | 63 | 1013.0 |
| 20260504044503 | 47 | 250 | 1.7 | 3.5 | 0.00 | 0.00 | 0.00 | 62 | 1013.1 |
| 20260504043013 | 47 | 244 | 1.7 | 4.3 | 0.00 | 0.00 | 0.00 | 60 | 1013.2 |
| 20260504041510 | 48 | 220 | 1.7 | 3.5 | 0.00 | 0.00 | 0.00 | 60 | 1013.2 |
| 20260504040004 | 48 | 202 | 1.7 | 2.6 | 0.00 | 0.00 | 0.00 | 59 | 1012.7 |
| 20260504034505 | 48 | 194 | 1.7 | 3.5 | 0.00 | 0.00 | 0.00 | 58 | 1012.6 |
| 20260504033001 | 49 | 201 | 2.6 | 4.3 | 0.00 | 0.00 | 0.00 | 58 | 1012.5 |
| 20260504031501 | 49 | 193 | 2.6 | 3.5 | 0.00 | 0.00 | 0.00 | 57 | 1012.4 |
| 20260504030006 | 50 | 208 | 2.6 | 3.5 | 0.00 | 0.00 | 0.00 | 55 | 1012.5 |
| 20260504024502 | 50 | 200 | 2.6 | 4.3 | 0.00 | 0.00 | 0.00 | 56 | 1012.5 |
| 20260504023008 | 50 | 186 | 2.6 | 4.3 | 0.00 | 0.00 | 0.00 | 55 | 1012.5 |
| 20260504021504 | 50 | 199 | 2.6 | 4.3 | 0.00 | 0.00 | 0.00 | 54 | 1012.6 |
| 20260504020005 | 51 | 201 | 1.7 | 3.5 | 0.00 | 0.00 | 0.00 | 54 | 1012.6 |
| 20260504014459 | 51 | 200 | 1.7 | 3.5 | 0.00 | 0.00 | 0.00 | 53 | 1012.6 |
| 20260504013000 | 50 | 219 | 1.7 | 2.6 | 0.00 | 0.00 | 0.00 | 55 | 1012.6 |
| 20260504011500 | 51 | 252 | 1.7 | 3.5 | 0.00 | 0.00 | 0.00 | 53 | 1012.2 |
| 20260504010001 | 51 | 248 | 1.7 | 4.3 | 0.00 | 0.00 | 0.00 | 52 | 1012.1 |
| 20260504004459 | 52 | 236 | 1.7 | 3.5 | 0.00 | 0.00 | 0.00 | 51 | 1011.9 |
| 20260504003003 | 53 | 239 | 1.7 | 3.5 | 0.00 | 0.00 | 0.00 | 51 | 1011.6 |
| 20260504001500 | 54 | 243 | 1.7 | 4.3 | 0.00 | 0.00 | 0.00 | 49 | 1011.4 |
| 20260504000005 | 54 | 254 | 2.6 | 5.2 | 0.00 | 0.00 | 0.00 | 47 | 1011.3 |
| 20260503234502 | 56 | 266 | 2.6 | 6.1 | 0.00 | 0.00 | 0.00 | 46 | 1011.3 |
| 20260503233000 | 57 | 309 | 2.6 | 7.8 | 0.00 | 0.00 | 0.00 | 44 | 1011.0 |
| 20260503231500 | 58 | 244 | 5.2 | 12.2 | 0.00 | 0.00 | 0.00 | 41 | 1011.0 |
| 20260503230006 | 59 | 287 | 5.2 | 9.6 | 0.00 | 0.00 | 0.00 | 40 | 1011.0 |
| 20260503224500 | 59 | 283 | 4.3 | 8.7 | 0.00 | 0.00 | 0.00 | 41 | 1011.0 |
| 20260503222959 | 60 | 257 | 4.3 | 8.7 | 0.00 | 0.00 | 0.00 | 43 | 1011.0 |
| 20260503221459 | 60 | 271 | 5.2 | 10.4 | 0.00 | 0.00 | 0.00 | 40 | 1011.0 |
| 20260503220003 | 60 | 279 | 4.3 | 10.4 | 0.00 | 0.00 | 0.00 | 43 | 1011.1 |
| 20260503214501 | 59 | 252 | 5.2 | 10.4 | 0.00 | 0.00 | 0.00 | 41 | 1010.9 |
| 20260503212959 | 59 | 246 | 5.2 | 12.2 | 0.00 | 0.00 | 0.00 | 41 | 1010.7 |
| 20260503211458 | 58 | 290 | 5.2 | 11.3 | 0.00 | 0.00 | 0.00 | 42 | 1010.7 |
| 20260503210003 | 57 | 300 | 5.2 | 13.0 | 0.00 | 0.00 | 0.00 | 42 | 1010.7 |
| 20260503204459 | 58 | 298 | 4.3 | 10.4 | 0.00 | 0.00 | 0.00 | 40 | 1010.7 |
| 20260503203001 | 58 | 344 | 5.2 | 13.0 | 0.00 | 0.00 | 0.00 | 41 | 1010.9 |
| 20260503201459 | 58 | 355 | 7.0 | 13.9 | 0.00 | 0.00 | 0.00 | 39 | 1011.1 |
| 20260503200000 | 58 | 250 | 5.2 | 13.0 | 0.00 | 0.00 | 0.00 | 39 | 1011.2 |
| 20260503194459 | 57 | 348 | 6.1 | 12.2 | 0.00 | 0.00 | 0.00 | 40 | 1011.2 |
| 20260503192959 | 57 | 329 | 7.8 | 17.4 | 0.00 | 0.00 | 0.00 | 39 | 1011.5 |
| 20260503191459 | 57 | 266 | 5.2 | 9.6 | 0.00 | 0.00 | 0.00 | 40 | 1011.7 |
| 20260503190008 | 56 | 296 | 8.7 | 16.5 | 0.00 | 0.00 | 0.00 | 43 | 1011.8 |
| 20260503184459 | 56 | 296 | 7.0 | 17.4 | 0.00 | 0.00 | 0.00 | 43 | 1012.1 |
| 20260503182958 | 55 | 293 | 7.0 | 13.9 | 0.00 | 0.00 | 0.00 | 43 | 1012.4 |
| 20260503181459 | 55 | 273 | 7.0 | 17.4 | 0.00 | 0.00 | 0.00 | 46 | 1012.4 |
| 20260503180001 | 55 | 295 | 5.2 | 13.0 | 0.00 | 0.00 | 0.00 | 43 | 1012.3 |
| 20260503174459 | 53 | 310 | 7.0 | 16.5 | 0.00 | 0.00 | 0.00 | 46 | 1012.6 |
| 20260503172959 | 53 | 293 | 5.2 | 12.2 | 0.00 | 0.00 | 0.00 | 49 | 1012.7 |
| 20260503171459 | 53 | 261 | 4.3 | 11.3 | 0.00 | 0.00 | 0.00 | 45 | 1012.7 |